Regional Weather Roundup
Issued by NWS

Home | Current Version | Previous Version | Graphics & Text | Print | Product List | Glossary On
Versions: 1 2 3 4 5 6 7 8 9 10 11 12 13 14 15 16 17 18 19 20 21 22 23 24 25 26 27 28 29 30 31 32 33 34 35 36 37 38 39 40 41 42 43 44 45 46 47 48 49 50
000
ASUS43 KOAX 291202
RWRNE

WEATHER ROUNDUP FOR NEBRASKA
NATIONAL WEATHER SERVICE OMAHA NE
700 AM CDT FRI MAY 29 2015

NOTES: SATELLITE DATA IS BEING USED TO AUGMENT CLOUD COVER ABOVE
       12000 FEET.
       "FAIR" INDICATES FEW OR NO CLOUDS BELOW 12,000 FEET WITH NO
       SIGNIFICANT WEATHER AND/OR OBSTRUCTIONS TO VISIBILITY.

  * THESE STATIONS DO NOT REPORT WEATHER SUCH AS RAIN...SNOW OR FOG.

NEZ001>004-019>022-054>056-291300-
NEBRASKA PANHANDLE

CITY           SKY/WX    TMP DP  RH WIND       PRES   REMARKS
SCOTTSBLUFF    MOCLDY    52  50  93 W6        30.10R
6HR MIN TEMP:  49; 6HR MAX TEMP:  55;

ALLIANCE       MOCLDY    47  46  97 W7        30.07R
6HR MIN TEMP:  44; 6HR MAX TEMP:  55;

CHADRON        CLOUDY    56  52  86 NW7       30.08R
6HR MIN TEMP:  54; 6HR MAX TEMP:  56; 6HR PCP:  0.02;

KIMBALL          N/A    N/A N/A N/A MISG        N/A
SIDNEY         PTCLDY    49  46  90 NW12      30.10R
6HR MIN TEMP:  48; 6HR MAX TEMP:  53; 6HR PCP:  0.02;

$$

NEZ057>060-069>072-079>082-291300-
SOUTHWEST NEBRASKA

CITY           SKY/WX    TMP DP  RH WIND       PRES   REMARKS
NORTH PLATTE   PTCLDY    52  50  93 NW5       30.01R
6HR MIN TEMP:  50; 6HR MAX TEMP:  58;

IMPERIAL       CLOUDY    56  51  84 NW6       30.05R
6HR MIN TEMP:  53; 6HR MAX TEMP:  56;

LEXINGTON      PTCLDY    55  54  95 NW7       29.97R
MCCOOK         CLEAR     53  51  93 N3        30.00R
6HR MIN TEMP:  53; 6HR MAX TEMP:  57;

$$

NEZ005>010-023>029-035>040-094-291300-
NORTH CENTRAL NEBRASKA

CITY           SKY/WX    TMP DP  RH WIND       PRES   REMARKS
VALENTINE      CLOUDY    58  54  86 NW15      29.97R
6HR MIN TEMP:  56; 6HR MAX TEMP:  58;

AINSWORTH      MOCLDY    57  55  94 NW9       29.96R
BROKEN BOW     MOCLDY    58  54  86 NW16      29.95R
6HR MIN TEMP:  58; 6HR MAX TEMP:  60; 6HR PCP:  0.01;

ORD            PTCLDY    58  55  90 NW6       29.93R
6HR MIN TEMP:  57; 6HR MAX TEMP:  59;

$$

NEZ041-046>049-061>064-073>077-083>087-291300-
SOUTH CENTRAL NEBRASKA

CITY           SKY/WX    TMP DP  RH WIND       PRES   REMARKS
GRAND ISLAND   PTCLDY    59  56  89 W9        29.94R
6HR MIN TEMP:  58; 6HR MAX TEMP:  62; 6HR PCP:  0.02;

AURORA         PTCLDY    60  59  97 SW9       29.94R
HASTINGS       MOCLDY    57  55  93 SW7       29.95R
6HR MIN TEMP:  57; 6HR MAX TEMP:  62; 6HR PCP:  0.02;

HEBRON         CLOUDY    61  58  89 CALM      29.95R
HOLDREGE       PTCLDY    55  52  89 NW3       29.97R
KEARNEY *      MOCLDY    57  54  88 NW10      29.96R
YORK           PTCLDY    59  59 100 SW9       29.93R
$$

NEZ011>018-030>034-042>045-291300-
NORTHEAST NEBRASKA

CITY           SKY/WX    TMP DP  RH WIND       PRES   REMARKS
NORFOLK        CLOUDY    63  58  83 S6        29.89R
6HR MIN TEMP:  63; 6HR MAX TEMP:  68; 6HR PCP: TRACE;

ALBION         CLOUDY    61  56  84 W5        29.91R
BLAIR          CLOUDY    64  61  91 S10       29.90S
COLUMBUS *     MOCLDY    63  55  77 S5        29.92R
FREMONT        MOCLDY    65  63  93 S5        29.90R
TEKAMAH        CLOUDY    65  63  93 S8        29.88R
6HR MIN TEMP:  65; 6HR MAX TEMP:  67; 6HR PCP:  0.15;

$$

NEZ050>053-065>068-078-088>093-291300-
SOUTHEAST NEBRASKA

CITY           SKY/WX    TMP DP  RH WIND       PRES   REMARKS
LINCOLN        MOCLDY    63  60  90 SW8       29.92R
6HR MIN TEMP:  63; 6HR MAX TEMP:  68; 6HR PCP: TRACE;

OMAHA EPPLEY   CLOUDY    66  63  90 SE10      29.89S
6HR MIN TEMP:  65; 6HR MAX TEMP:  68;

BEATRICE       CLOUDY    64  60  89 SE8       29.93R
FALLS CITY     CLOUDY    66  64  93 SW7       29.93R
6HR MIN TEMP:  64; 6HR MAX TEMP:  66;

NEBRASKA CITY  CLOUDY    64  64 100 SW8       29.94R FOG
PLATTSMOUTH    RAIN      65  63  93 S13       29.93R
$$

NEZ044-045-051>053-067-291300-
OMAHA AREA

CITY           SKY/WX    TMP DP  RH WIND       PRES   REMARKS
OMAHA EPPLEY   CLOUDY    66  63  90 SE10      29.89S
6HR MIN TEMP:  65; 6HR MAX TEMP:  68;

BLAIR          CLOUDY    64  61  91 S10       29.90S
FREMONT        MOCLDY    65  63  93 S5        29.90R
MILLARD        CLOUDY    65  63  93 CALM      29.89S
OFFUTT AFB     PTSUNNY   65  64  93 SE10      29.90R
PLATTSMOUTH    RAIN      65  63  93 S13       29.93R
WAHOO          FAIR      65  61  88 SW7       29.91R
$$



USA.gov is the U.S. government's official web portal to all federal, state and local government web resources and services.